Change the Weather History Date:

Monday, January 28, 2013

  Actual Average Record
Temperature  
Mean Temperature 34 °F 24 °F  
Max Temperature 43 °F 31 °F 51 °F (1990)
Min Temperature 25 °F 18 °F -6 °F (1925)
Degree Days  
Heating Degree Days 31 41  
Month to date heating degree days 1022 1126  
Since 1 July heating degree days 3183 3541  
Cooling Degree Days 0 0  
Month to date cooling degree days 0 0  
Year to date cooling degree days 0 0  
Moisture  
Dew Point 34 °F    
Average Humidity 82    
Maximum Humidity 100    
Minimum Humidity 63    
Precipitation  
Precipitation 0.46 in 0.08 in 0.88 in (1889)
Month to date precipitation 1.21 2.91  
Year to date precipitation 1.21 2.91  
Snow  
Snow 1.70 in 0.70 in 7.10 in (2009)
Month to date snowfall 6.1 23.1  
Since 1 July snowfall 28.1 59.3  
Snow Depth 2.00 in    
Sea Level Pressure  
Sea Level Pressure 29.99 in    
Wind  
Wind Speed 11 mph (SSW)    
Max Wind Speed 25 mph    
Max Gust Speed 33 mph    
Visibility 3 miles    
Events Fog , Rain , Snow    
T = Trace of Precipitation, MM = Missing Value Source: NWS Daily Summary

Daily Weather History Graph

Daily Weather History Graph

Search for Another Location

Airport or City:

Trip Planner

Search our weather history database for the weather conditions in past years. The results will help you decide how hot, cold, wet, or windy it might be!

Date:

Astronomy

Jan. 28, 2013 Rise Set
Actual Time 7:33 AM EST 5:22 PM EST
Civil Twilight 7:03 AM EST 5:53 PM EST
Nautical Twilight 6:29 AM EST 6:27 PM EST
Astronomical Twilight 5:55 AM EST 7:00 PM EST
Moon 7:19 PM EST (1/28) 7:54 AM EST (1/28)
Length of Visible Light 10h 49m
Length of Day
9h 49m
Full, 98% of the Moon is Illuminated
Jan 28
Full
Feb 3
Last Quarter
Feb 10
New
Feb 17
First Quarter
Feb 25
Full

Hourly Weather History & Observations

Time (EST) Temp. Windchill Dew Point Humidity Pressure Visibility Wind Dir Wind Speed Gust Speed Precip Events Conditions
12:54 AM 26.1 °F 21.9 °F 16.0 °F 66% 30.31 in 10.0 mi ESE 3.5 mph - N/A   Overcast
1:54 AM 27.0 °F - 17.1 °F 66% 30.30 in 10.0 mi Calm Calm - N/A   Overcast
2:54 AM 27.0 °F 21.6 °F 17.1 °F 66% 30.28 in 10.0 mi South 4.6 mph - N/A   Overcast
3:54 AM 28.9 °F 21.9 °F 19.9 °F 69% 30.24 in 8.0 mi South 6.9 mph - 0.00 in Snow Light Snow
4:03 AM 28.4 °F 21.2 °F 21.2 °F 74% 30.21 in 2.5 mi South 6.9 mph - 0.00 in Snow Light Snow
4:37 AM 26.6 °F 20.0 °F 24.8 °F 93% 30.19 in 1.5 mi SE 5.8 mph - 0.01 in Snow Light Snow
4:54 AM 27.0 °F 19.5 °F 24.1 °F 89% 30.20 in 1.2 mi SE 6.9 mph - 0.03 in Snow Light Snow
5:54 AM 28.9 °F 20.4 °F 27.0 °F 92% 30.14 in 1.2 mi ESE 9.2 mph - 0.07 in Snow Light Snow
6:11 AM 30.2 °F 21.9 °F 28.4 °F 93% 30.10 in 2.0 mi SE 9.2 mph - 0.02 in Snow Light Snow
6:36 AM 30.2 °F 21.3 °F 28.4 °F 93% 30.08 in 4.0 mi ESE 10.4 mph - 0.05 in Rain Light Freezing Rain
6:54 AM 30.9 °F 22.2 °F 28.9 °F 92% 30.09 in 5.0 mi SE 10.4 mph - 0.08 in Rain Light Freezing Rain
7:00 AM 30.2 °F 20.8 °F 28.4 °F 93% 30.05 in 6.0 mi SE 11.5 mph - 0.01 in Rain Light Freezing Rain
7:26 AM 32.0 °F 26.4 °F 30.2 °F 93% 30.06 in 5.0 mi SSE 5.8 mph - 0.03 in Rain Light Freezing Rain
7:54 AM 32.0 °F 26.4 °F 30.0 °F 92% 30.07 in 5.0 mi SSE 5.8 mph - 0.06 in Rain Light Freezing Rain
8:04 AM 33.8 °F 28.6 °F 30.2 °F 87% 30.03 in 5.0 mi South 5.8 mph - 0.01 in Rain Light Rain
8:54 AM 34.0 °F 28.0 °F 32.0 °F 92% 30.04 in 3.0 mi South 6.9 mph - 0.01 in   Light Drizzle
8:59 AM 33.8 °F 27.7 °F 32.0 °F 93% 30.00 in 2.0 mi South 6.9 mph - 0.00 in Rain Light Rain
9:21 AM 35.6 °F 29.2 °F 33.8 °F 93% 29.98 in 3.0 mi South 8.1 mph - 0.01 in   Light Drizzle
9:38 AM 35.6 °F 28.6 °F 33.8 °F 93% 29.98 in 6.0 mi SSW 9.2 mph - 0.01 in   Overcast
9:54 AM 36.0 °F 28.5 °F 34.0 °F 93% 29.99 in 8.0 mi SSW 10.4 mph - 0.01 in   Overcast
10:01 AM 35.6 °F 27.5 °F 33.8 °F 93% 29.96 in 6.0 mi SSW 11.5 mph - 0.00 in Rain Light Rain
10:39 AM 37.4 °F 28.9 °F 33.8 °F 87% 29.95 in 4.0 mi SSW 13.8 mph - 0.00 in   Light Drizzle
10:42 AM 37.4 °F 28.9 °F 33.8 °F 87% 29.95 in 2.0 mi SSW 13.8 mph - 0.00 in   Light Drizzle
10:54 AM 37.0 °F 28.1 °F 35.1 °F 93% 29.98 in 1.5 mi SSW 15.0 mph - 0.01 in Rain Light Rain
11:07 AM 37.4 °F 28.5 °F 35.6 °F 93% 29.95 in 2.0 mi SSW 15.0 mph - 0.00 in Rain Light Rain
11:21 AM 37.4 °F 28.5 °F 35.6 °F 93% 29.94 in 4.0 mi SSW 15.0 mph - 0.00 in Rain Light Rain
11:24 AM 37.4 °F 28.5 °F 35.6 °F 93% 29.94 in 4.0 mi SSW 15.0 mph - 0.00 in Rain Light Rain
11:35 AM 37.4 °F 29.3 °F 35.6 °F 93% 29.94 in 2.0 mi SSW 12.7 mph - 0.00 in Rain Light Rain
11:49 AM 37.4 °F 28.9 °F 35.6 °F 93% 29.93 in 3.0 mi SSW 13.8 mph - 0.01 in Rain Light Rain
11:54 AM 37.0 °F 28.9 °F 36.0 °F 96% 29.95 in 3.0 mi SSW 12.7 mph - 0.01 in Rain Light Rain
12:17 PM 37.4 °F 30.3 °F 35.6 °F 93% 29.91 in 2.0 mi SW 10.4 mph - 0.00 in Rain Light Rain
12:30 PM 37.4 °F 29.3 °F 35.6 °F 93% 29.91 in 1.8 mi SSW 12.7 mph - 0.00 in   Light Drizzle
12:54 PM 37.9 °F 29.2 °F 37.0 °F 97% 29.91 in 1.2 mi SSW 15.0 mph - 0.01 in Rain Light Rain
1:09 PM 37.4 °F 28.2 °F 37.4 °F 100% 29.87 in 2.0 mi SSW 16.1 mph - 0.00 in Rain Light Rain
1:36 PM 37.4 °F 29.3 °F 37.4 °F 100% 29.86 in 1.5 mi SSW 12.7 mph - 0.01 in   Light Drizzle
1:54 PM 39.0 °F 31.0 °F 37.9 °F 96% 29.87 in 1.2 mi SSW 13.8 mph - 0.01 in Rain Light Rain
2:54 PM 39.9 °F 32.1 °F 39.0 °F 97% 29.86 in 1.2 mi SSW 13.8 mph - 0.03 in Rain Light Rain
3:20 PM 41.0 °F 32.8 °F 39.2 °F 93% 29.83 in 2.5 mi SW 16.1 mph - 0.02 in Rain Light Rain
3:36 PM 42.8 °F 35.1 °F 41.0 °F 93% 29.83 in 1.5 mi SW 16.1 mph 21.9 mph 0.03 in Rain Light Rain
3:54 PM 43.0 °F 35.1 °F 41.0 °F 93% 29.86 in 1.0 mi SW 17.3 mph 26.5 mph 0.03 in Rain Light Rain
4:50 PM 42.8 °F 35.1 °F 42.8 °F 100% 29.84 in 0.8 mi WSW 16.1 mph 25.3 mph 0.04 in Rain Light Rain
4:54 PM 42.1 °F 33.9 °F 41.0 °F 96% 29.87 in 0.8 mi WSW 17.3 mph 25.3 mph 0.04 in Rain Light Rain
5:31 PM 41.0 °F 33.1 °F 41.0 °F 100% 29.86 in 1.2 mi WSW 15.0 mph 24.2 mph 0.02 in Rain Light Rain
5:54 PM 41.0 °F 31.9 °F 41.0 °F 100% 29.88 in 1.8 mi WSW 19.6 mph 25.3 mph 0.03 in Rain Light Rain
6:54 PM 43.0 °F 34.2 °F 42.1 °F 97% 29.90 in 1.2 mi WSW 20.7 mph 26.5 mph 0.01 in   Light Drizzle
7:25 PM 42.8 °F 34.3 °F 41.0 °F 93% 29.89 in 0.5 mi WSW 19.6 mph 29.9 mph 0.01 in Fog Fog
7:54 PM 42.1 °F 34.5 °F 41.0 °F 96% 29.92 in 0.5 mi West 15.0 mph - 0.01 in Fog Fog
8:37 PM 41.0 °F 33.1 °F 39.2 °F 93% 29.91 in 1.0 mi West 15.0 mph - 0.00 in   Light Drizzle
8:54 PM 41.0 °F 33.9 °F 39.9 °F 96% 29.94 in 1.8 mi WSW 12.7 mph - 0.00 in   Light Drizzle
9:54 PM 39.9 °F 33.9 °F 39.0 °F 97% 29.96 in 1.5 mi West 9.2 mph - 0.01 in   Overcast
10:34 PM 39.2 °F 33.6 °F 39.2 °F 100% 29.95 in 1.2 mi WSW 8.1 mph - N/A   Overcast
10:54 PM 39.0 °F 32.8 °F 39.0 °F 100% 29.98 in 1.8 mi West 9.2 mph - N/A   Overcast
11:15 PM 39.2 °F 32.5 °F 39.2 °F 100% 29.96 in 3.0 mi WNW 10.4 mph - N/A   Overcast
11:38 PM 39.2 °F 34.2 °F 37.4 °F 93% 29.97 in 4.0 mi West 6.9 mph - N/A   Overcast
11:54 PM 39.9 °F 33.9 °F 37.9 °F 93% 30.00 in 4.0 mi West 9.2 mph - N/A   Overcast